Regional Weather Roundup
Issued by NWS Cleveland, OH

Home | Current Version | Previous Version | Text Only | Print | Product List | Glossary On
Versions: 1 2 3 4 5 6 7 8 9 10 11 12 13 14 15 16 17 18 19 20 21 22 23 24 25 26 27 28 29 30 31 32 33 34 35 36 37 38 39 40 41 42 43 44 45 46 47 48 49 50
000
ASUS41 KCLE 250010
RWRCLE
OHIO REGIONAL WEATHER ROUNDUP
NATIONAL WEATHER SERVICE CLEVELAND, OH
800 PM EDT FRI OCT 24 2014

NOTE: "FAIR" INDICATES FEW OR NO CLOUDS BELOW 12,000 FEET WITH NO
SIGNIFICANT WEATHER AND/OR OBSTRUCTIONS TO VISIBILITY.

OHZ001>008-015>018-024>027-034-035-043-044-250100-
   NORTHWEST OHIO

CITY           SKY/WX    TMP DP  RH WIND       PRES   REMARKS
DEFIANCE       MOCLDY    52  47  83 CALM      30.01R
FINDLAY        MOCLDY    58  45  62 N3        30.00S
TOLEDO EXPRESS MOCLDY    50  45  83 CALM      30.00S
TOLEDO EXEC    MOCLDY    55  44  66 SW5       30.01R
LIMA           MOCLDY    55  43  63 SW5       30.01S
$$

OHZ009>014-019>023-028>033-038-089-250100-
   NORTHEAST OHIO

CITY           SKY/WX    TMP DP  RH WIND       PRES   REMARKS
CLE-HOPKINS    CLOUDY    56  45  66 CALM      30.03R
CLE-LAKEFRONT  CLOUDY    56  45  66 CALM      30.00R
CUY CO. ARPT   MOCLDY    52  48  87 CALM      30.01R
LORAIN-ELYRIA  CLOUDY    56  46  69 SW3       30.01R
ASHTABULA      CLOUDY    47  43  86 CALM      30.01R
AKRON-CANTON   MOCLDY    56  39  53 CALM      30.01R
WOOSTER        CLOUDY    57  43  59 CALM      30.02R
MANSFIELD      CLOUDY    56  42  59 SW3       30.02R
YOUNGSTOWN     PTCLDY    52  38  58 SW3       30.00S
$$

OHZ042-051>053-060>062-070>072-077>081-250100-
  SOUTHWEST OHIO

CITY           SKY/WX    TMP DP  RH WIND       PRES   REMARKS
CINC-COVINGTON MOCLDY    52  41  66 S5        30.04R
CINC-LUNKEN    PTCLDY    50  44  80 CALM      30.05R
HAMILTON         N/A    N/A N/A N/A MISG      30.04
DAYTON         MOCLDY    60  41  49 SW5       30.04R
WRIGHT-PAT AFB PTCLDY    53  40  61 SW2       30.03R
DAYTON GENERAL CLEAR     56  40  55 S3        30.03R
WILMINGTON     PTCLDY    54  37  52 SW3       30.04R
$$

OHZ036-037-039>041-045>050-054>059-063>069-073>076-082>088-250100-
  CENTRAL AND SOUTHEAST OHIO

CITY           SKY/WX    TMP DP  RH WIND       PRES   REMARKS
COLUMBUS       PTCLDY    57  37  47 S3        30.02R
OSU AIRPORT    CLEAR     56  36  47 CALM      30.02R
BOLTON FIELD   CLEAR     51  38  60 SW3       30.03R
RICKENBACK AFB CLEAR     52  38  59 SW5       30.02R
NEWARK         CLEAR     47  42  83 CALM      30.02S
MARION         MOCLDY    52  40  63 SW3       30.02R
LANCASTER      CLEAR     47  41  80 CALM      30.03S
ZANESVILLE     CLEAR     52  38  58 CALM      30.03S
NEW PHILLY     CLEAR     49  41  74 CALM      30.02S
$$



USA.gov is the U.S. government's official web portal to all federal, state and local government web resources and services.